Weather History for Bainbridge, GA

Change the Weather History Date:

Wednesday, January 22, 2014

  Actual Average (KMAI) Record (KMAI)
Temperature  
Mean Temperature 40 °F 50 °F  
Max Temperature 48 °F 62 °F 78 °F (2006)
Min Temperature 32 °F 40 °F 23 °F (2009)
Degree Days  
Heating Degree Days 25    
Month to date heating degree days  
Since 1 July heating degree days  
Cooling Degree Days 0    
Month to date cooling degree days  
Year to date cooling degree days  
Moisture  
Dew Point 21 °F    
Average Humidity 54    
Maximum Humidity 87    
Minimum Humidity 25    
Precipitation  
Precipitation 0.00 in 0.17 in 0.40 in (2007)
Month to date precipitation 3.33  
Year to date precipitation 3.33  
Sea Level Pressure  
Sea Level Pressure 30.16 in    
Wind  
Wind Speed 8 mph (NW)    
Max Wind Speed 16 mph    
Max Gust Speed 23 mph    
Visibility 10 miles    
Events      
T = Trace of Precipitation, MM = Missing Value Source: NWS Daily Summary

Daily Weather History Graph

Daily Weather History Graph

Search for Another Location

Airport:

Trip Planner

Search our weather history database for the weather conditions in past years. The results will help you decide how hot, cold, wet, or windy it might be!

Date:

Astronomy

Jan. 22, 2014 Rise Set
Actual Time 7:35 AM EST 6:05 PM EST
Civil Twilight 7:09 AM EST 6:31 PM EST
Nautical Twilight 6:40 AM EST 7:00 PM EST
Astronomical Twilight 6:11 AM EST 7:29 PM EST
Moon No Moon Rise 11:02 AM EST (1/22)
Length of Visible Light 11h 21m
Length of Day
10h 30m
Waning Gibbous, 65% of the Moon is Illuminated
Jan 22
Waning Gibbous
Jan 24
Last Quarter
Jan 30
New
Feb 6
First Quarter
Feb 14
Full

Hourly Weather History & Observations

Time (EST) Temp. Windchill Dew Point Humidity Pressure Visibility Wind Dir Wind Speed Gust Speed Precip Events Conditions
12:15 AM 37.4 °F 30.3 °F 24.8 °F 60% 30.08 in 10.0 mi NNW 10.4 mph 19.6 mph N/A   Clear
12:35 AM 37.4 °F 29.3 °F 26.6 °F 65% 30.09 in 10.0 mi NW 12.7 mph 18.4 mph N/A   Clear
12:55 AM 35.6 °F 28.0 °F 23.0 °F 60% 30.09 in 10.0 mi NNW 10.4 mph - N/A   Clear
1:15 AM 35.6 °F 27.5 °F 23.0 °F 60% 30.09 in 10.0 mi NNW 11.5 mph - N/A   Clear
1:35 AM 35.6 °F 25.9 °F 23.0 °F 60% 30.09 in 10.0 mi NW 16.1 mph 23.0 mph N/A   Clear
1:55 AM 33.8 °F 25.8 °F 21.2 °F 60% 30.10 in 10.0 mi NW 10.4 mph 20.7 mph N/A   Clear
2:15 AM 33.8 °F 26.4 °F 21.2 °F 60% 30.10 in 10.0 mi NW 9.2 mph - N/A   Clear
2:35 AM 33.8 °F 25.8 °F 21.2 °F 60% 30.10 in 10.0 mi NW 10.4 mph - N/A   Clear
2:55 AM 33.8 °F 24.3 °F 21.2 °F 60% 30.10 in 10.0 mi NW 13.8 mph 18.4 mph N/A   Clear
3:15 AM 33.8 °F 26.4 °F 21.2 °F 60% 30.10 in 10.0 mi NNW 9.2 mph - N/A   Clear
3:35 AM 33.8 °F 26.4 °F 21.2 °F 60% 30.10 in 10.0 mi NW 9.2 mph - N/A   Clear
3:55 AM 33.8 °F 27.0 °F 23.0 °F 65% 30.11 in 10.0 mi NW 8.1 mph - N/A   Clear
4:15 AM 33.8 °F 26.4 °F 23.0 °F 65% 30.11 in 10.0 mi WNW 9.2 mph - N/A   Clear
4:55 AM 32.0 °F 24.8 °F 21.2 °F 64% 30.12 in 10.0 mi NW 8.1 mph - N/A   Clear
5:15 AM 32.0 °F 25.6 °F 21.2 °F 64% 30.12 in 10.0 mi NW 6.9 mph - N/A   Clear
5:35 AM 32.0 °F 24.2 °F 21.2 °F 64% 30.13 in 10.0 mi NW 9.2 mph - N/A   Clear
5:55 AM 32.0 °F 24.8 °F 21.2 °F 64% 30.15 in 10.0 mi NW 8.1 mph - N/A   Clear
6:15 AM 32.0 °F 23.6 °F 21.2 °F 64% 30.15 in 10.0 mi NW 10.4 mph 16.1 mph N/A   Clear
6:35 AM 32.0 °F 24.2 °F 21.2 °F 64% 30.16 in 10.0 mi NW 9.2 mph - N/A   Clear
6:55 AM 32.0 °F 23.6 °F 21.2 °F 64% 30.16 in 10.0 mi NNW 10.4 mph - N/A   Clear
7:15 AM 32.0 °F 24.2 °F 21.2 °F 64% 30.16 in 10.0 mi NW 9.2 mph - N/A   Clear
7:35 AM 32.0 °F 24.2 °F 21.2 °F 64% 30.17 in 10.0 mi NW 9.2 mph - N/A   Clear
7:55 AM 32.0 °F 25.6 °F 21.2 °F 64% 30.17 in 10.0 mi NNW 6.9 mph - N/A   Clear
8:15 AM 32.0 °F 24.8 °F 21.2 °F 64% 30.19 in 10.0 mi NW 8.1 mph - N/A   Clear
8:35 AM 32.0 °F 22.5 °F 23.0 °F 69% 30.20 in 10.0 mi NW 12.7 mph - N/A   Clear
8:55 AM 33.8 °F 26.4 °F 21.2 °F 60% 30.21 in 10.0 mi NW 9.2 mph - N/A   Clear
9:15 AM 33.8 °F 27.0 °F 21.2 °F 60% 30.22 in 10.0 mi NNW 8.1 mph - N/A   Clear
9:35 AM 33.8 °F 26.4 °F 19.4 °F 56% 30.22 in 10.0 mi NNW 9.2 mph - N/A   Clear
9:55 AM 33.8 °F 26.4 °F 21.2 °F 60% 30.22 in 10.0 mi North 9.2 mph - N/A   Clear
10:15 AM 33.8 °F 27.0 °F 19.4 °F 56% 30.22 in 10.0 mi NW 8.1 mph - N/A   Clear
10:35 AM 35.6 °F 29.9 °F 19.4 °F 52% 30.23 in 10.0 mi NW 6.9 mph - N/A   Clear
10:55 AM 35.6 °F 30.7 °F 17.6 °F 48% 30.22 in 10.0 mi NW 5.8 mph - N/A   Clear
11:15 AM 37.4 °F 33.8 °F 19.4 °F 48% 30.22 in 10.0 mi NNW 4.6 mph - N/A   Clear
11:35 AM 37.4 °F 32.1 °F 15.8 °F 41% 30.21 in 10.0 mi WNW 6.9 mph - N/A   Clear
11:55 AM 41.0 °F 38.0 °F 17.6 °F 39% 30.20 in 10.0 mi WNW 4.6 mph - N/A   Clear
12:15 PM 41.0 °F 37.1 °F 15.8 °F 36% 30.20 in 10.0 mi West 5.8 mph - N/A   Clear
12:35 PM 41.0 °F 37.1 °F 17.6 °F 39% 30.18 in 10.0 mi West 5.8 mph - N/A   Clear
12:55 PM 42.8 °F 38.6 °F 17.6 °F 36% 30.18 in 10.0 mi WNW 6.9 mph - N/A   Clear
1:15 PM 42.8 °F 41.1 °F 17.6 °F 36% 30.16 in 10.0 mi SW 3.5 mph - N/A   Clear
1:35 PM 42.8 °F 39.3 °F 14.0 °F 31% 30.15 in 10.0 mi West 5.8 mph - N/A   Clear
1:55 PM 44.6 °F 40.2 °F 12.2 °F 27% 30.14 in 10.0 mi WNW 8.1 mph - N/A   Clear
2:15 PM 44.6 °F 39.7 °F 12.2 °F 27% 30.14 in 10.0 mi West 9.2 mph - N/A   Clear
2:35 PM 46.4 °F 45.2 °F 12.2 °F 25% 30.13 in 10.0 mi WNW 3.5 mph - N/A   Clear
2:55 PM 46.4 °F 42.9 °F 12.2 °F 25% 30.12 in 10.0 mi West 6.9 mph - N/A   Clear
3:15 PM 46.4 °F 41.9 °F 12.2 °F 25% 30.13 in 10.0 mi West 9.2 mph - N/A   Clear
3:35 PM 46.4 °F 42.4 °F 14.0 °F 27% 30.14 in 10.0 mi West 8.1 mph - N/A   Clear
3:55 PM 46.4 °F 42.4 °F 14.0 °F 27% 30.14 in 10.0 mi WNW 8.1 mph - N/A   Clear
4:15 PM 48.2 °F - 14.0 °F 25% 30.13 in 10.0 mi WNW 8.1 mph - N/A   Clear
4:35 PM 48.2 °F - 14.0 °F 25% 30.13 in 10.0 mi West 6.9 mph - N/A   Clear
4:55 PM 46.4 °F 42.4 °F 14.0 °F 27% 30.15 in 10.0 mi WNW 8.1 mph - N/A   Clear
5:15 PM 46.4 °F 42.9 °F 14.0 °F 27% 30.14 in 10.0 mi West 6.9 mph - N/A   Clear
5:35 PM 46.4 °F 43.5 °F 14.0 °F 27% 30.14 in 10.0 mi West 5.8 mph - N/A   Clear
5:55 PM 44.6 °F 42.2 °F 17.6 °F 34% 30.16 in 10.0 mi West 4.6 mph - N/A   Clear
6:15 PM 42.8 °F 41.1 °F 19.4 °F 39% 30.16 in 10.0 mi WSW 3.5 mph - N/A   Clear
6:35 PM 41.0 °F 39.0 °F 19.4 °F 42% 30.17 in 10.0 mi WSW 3.5 mph - N/A   Clear
6:55 PM 41.0 °F - 23.0 °F 49% 30.16 in 10.0 mi Calm Calm - N/A   Clear
7:15 PM 41.0 °F - 23.0 °F 49% 30.17 in 10.0 mi Calm Calm - N/A   Clear
7:35 PM 37.4 °F - 26.6 °F 65% 30.17 in 10.0 mi Calm Calm - N/A   Clear
7:55 PM 35.6 °F - 26.6 °F 70% 30.17 in 10.0 mi Calm Calm - N/A   Clear
8:15 PM 37.4 °F - 23.0 °F 56% 30.17 in 10.0 mi Calm Calm - N/A   Clear
8:35 PM 33.8 °F - 28.4 °F 81% 30.18 in 10.0 mi Calm Calm - N/A   Clear
8:55 PM 35.6 °F - 28.4 °F 75% 30.18 in 10.0 mi Calm Calm - N/A   Clear
9:15 PM 33.8 °F - 28.4 °F 81% 30.18 in 10.0 mi Calm Calm - N/A   Clear
9:35 PM 33.8 °F - 28.4 °F 81% 30.19 in 10.0 mi Calm Calm - N/A   Clear
9:55 PM 33.8 °F - 28.4 °F 81% 30.20 in 10.0 mi Calm Calm - N/A   Clear
10:15 PM 33.8 °F - 26.6 °F 75% 30.20 in 10.0 mi Calm Calm - N/A   Clear
10:35 PM 33.8 °F - 26.6 °F 75% 30.21 in 10.0 mi Calm Calm - N/A   Clear
10:55 PM 33.8 °F - 30.2 °F 87% 30.22 in 10.0 mi Calm Calm - N/A   Clear
11:15 PM 33.8 °F - 28.4 °F 81% 30.22 in 10.0 mi Calm Calm - N/A   Clear
11:35 PM 33.8 °F - 28.4 °F 81% 30.22 in 10.0 mi Calm Calm - N/A   Clear
11:55 PM 33.8 °F - 28.4 °F 81% 30.22 in 10.0 mi Calm Calm - N/A   Clear